This demonstration page uses our WeatherBlox Daily Observations layout. Learn more.

Left ArrowRight Arrow

31.84235, -102.49876

Hourly Observations for June 4, 2022

Temp ( °F °C ) Dew Point ( °F °C ) Humidity (%) Winds ( mph kmh ) Pressure ( in mb ) Visibility ( mi km ) Precip ( " mm )
12:53 am 00:53 Clear 73 22.8 53 11.7 50 50 NW 26 43 29.90 1013 10 16 0.00 0.00
12:58 am 00:58 Clear 69 20.6 57 13.9 66 66 NW 21 33 29.90 1013 10 16 0.00 0.00
1:07 am 01:07 Partly Cloudy with Nearby Thunderstorms 72 22.2 55 12.8 55 55 WNW 8 13 29.88 1012 10 16 0.00 0.00
1:22 am 01:22 Mostly Cloudy 72 22.2 55 12.8 55 55 NNW 7 11 29.91 1013 10 16 0.00 0.00
1:45 am 01:45 Cloudy with Light Rain 67 19.4 59 15 76 76 E 12 19 29.93 1013 8 13 0.01 0.25
1:53 am 01:53 Cloudy with Light Rain 65 18.3 59 15 81 81 NNE 14 22 29.93 1014 10 16 0.01 0.25
2:53 am 02:53 Clear 65 18.3 58 14.4 78 78 ENE 16 26 29.86 1011 10 16 0.00 0.00
3:53 am 03:53 Clear 64 17.8 57 13.9 78 78 ESE 9 15 29.83 1010 10 16 0.00 0.00
4:53 am 04:53 Clear 63 17.2 57 13.9 81 81 SSE 12 19 29.78 1008 10 16 0.00 0.00
5:53 am 05:53 Clear 63 17.2 57 13.9 81 81 S 13 20 29.80 1009 10 16 0.00 0.00
6:53 am 06:53 Sunny 64 17.8 57 13.9 78 78 S 9 15 29.79 1009 10 16 0.00 0.00
7:53 am 07:53 Sunny 66 18.9 57 13.9 73 73 S 9 15 29.84 1010 10 16 0.00 0.00
8:53 am 08:53 Sunny 67 19.4 57 13.9 71 71 SW 9 15 29.82 1010 10 16 0.00 0.00
9:53 am 09:53 Sunny 72 22.2 57 13.9 59 59 S 10 17 29.83 1010 10 16 0.00 0.00
10:53 am 10:53 Sunny 78 25.6 56 13.3 47 47 SSE 16 26 29.81 1010 10 16 0.00 0.00
11:53 am 11:53 Sunny 81 27.2 58 14.4 45 45 SSE 17 28 29.80 1009 10 16 0.00 0.00
12:53 pm 12:53 Sunny 83 28.3 58 14.4 43 43 S 17 28 29.77 1008 10 16 0.00 0.00
1:53 pm 13:53 Sunny 86 30 58 14.4 39 39 S 16 26 29.75 1008 10 16 0.00 0.00
2:53 pm 14:53 Sunny 89 31.7 57 13.9 34 34 SSW 9 15 29.72 1007 10 16 0.00 0.00
3:53 pm 15:53 Sunny 90 32.2 56 13.3 32 32 WSW 10 17 29.70 1006 10 16 0.00 0.00
4:53 pm 16:53 Sunny 92 33.3 54 12.2 28 28 SSW 9 15 29.67 1005 10 16 0.00 0.00
5:53 pm 17:53 Sunny 93 33.9 53 11.7 26 26 SSE 8 13 29.64 1004 10 16 0.00 0.00
6:53 pm 18:53 Sunny 94 34.4 51 10.6 23 23 S 9 15 29.62 1003 10 16 0.00 0.00
7:53 pm 19:53 Sunny 93 33.9 49 9.4 22 22 SSE 7 11 29.61 1003 10 16 0.00 0.00
8:53 pm 20:53 Clear 88 31.1 52 11.1 29 29 SE 7 11 29.62 1003 10 16 0.00 0.00
9:53 pm 21:53 Clear 87 30.6 58 14.4 37 37 S 15 24 29.62 1003 10 16 0.00 0.00
10:53 pm 22:53 Clear 84 28.9 58 14.4 41 41 SSE 16 26 29.63 1004 10 16 0.00 0.00
11:53 pm 23:53 Clear 81 27.2 59 15 47 47 SSE 15 24 29.64 1004 10 16 0.00 0.00

Powered by AerisWeather